DONNELLS (DON)

Elevation: 4835' · STANISLAUS R basin · Operator: US Bureau of Reclamation

Provisional data, subject to change.
Query executed Monday at 22:57:40   clock

Select a sensor type for a plot of data.
Note: Reservoir Flows are daily averages.

Earlier

Date STORAGE    RES CHG    OUTFLOW   
 AF   AF   CFS  
02/03/2015 12580 -113 139
02/04/2015 12508 -72 128
02/05/2015 12486 -22 131
02/06/2015 12301 -185 169
02/07/2015 13279 978 97
02/08/2015 14688 1409 99
02/09/2015 16930 2242 136
02/10/2015 17637 707 146
02/11/2015 18106 469 129
02/12/2015 18419 313 174
02/13/2015 18676 257 215
02/14/2015 18950 274 183
02/15/2015 19279 329 142
02/16/2015 19411 132 236
02/17/2015 19588 177 184
02/18/2015 19482 -106 325
02/19/2015 19491 9 244
02/20/2015 19596 105 226
02/21/2015 19329 -267 371
02/22/2015 18982 -347 377
02/23/2015 18526 -456 432
02/24/2015 18028 -498 411
02/25/2015 18201 173 84
02/26/2015 18427 226 71
02/27/2015 18645 218 90
02/28/2015 18860 215 84
03/01/2015 19015 155 100
03/02/2015 -- -- --

Later | Latest

Warning! This data is preliminary and subject to revision.

Show DON Map | Plot DON Data | 1 Month DON Data | Real-Time DON Data | DON Info